Погода в Языкове

Россия / Самарская область     53°16′28″N   52°02′31″E
темп.,
°C
ветер,
м/с
пор.,
м/с
влажн.,
%
обл.,
%
осадки,
мм/ч
давл.,
гПа
погр.,
м
14 апреля, ср
ср1401:00+9юв39945 0.0 1033181
04:00+8вюв489766 0.0 1033167
07:00+9юв4692100 0.0 1032333
10:00+12вюв467626 0.0 1031553
13:00+16вюв67545 0.0 1029908
16:00+17юв56578 0.0 10271115
19:00+14юв33720 0.0 102643
22:00+10вюв39790 0.0 1026157
15 апреля, чт
чт1501:00+8юв49770 0.0 1025156
04:00+7юв49800 0.0 1024132
07:00+9юв410770 0.0 1024191
10:00+16ююв69501 0.0 1023467
13:00+19ююв563899 0.0 10211124
16:00+20ююв563069 0.0 10201670
19:00+15юв2246100 0.0 101913
22:00+12юв225573 0.0 101910
16 апреля, пт
пт1601:00+11вюв225731 0.0 101910
04:00+9в226282 0.0 101810
07:00+10в226136 0.0 101920
10:00+16в34435 0.0 1019468
13:00+19всв443210 0.0 10191598
16:00+19всв44306 0.0 10182006
19:00+15св485258 0.0 1019139
22:00+11св6128199 0.0 1020311
17 апреля, сб
сб1701:00+8св510895 0.0 1021275
04:00+6св510910 0.0 1022260
07:00+6св511855 0.0 1023372
10:00+10св68615 0.0 1023672
13:00+13св77435 0.0 10231110
16:00+14св67345 0.0 10231290
19:00+10св59465 0.0 1024258
22:00+6св310570 0.0 1025235
18 апреля, вс
вс1801:00+5св37650 0.0 1026114
04:00+4ссв35710 0.0 1026103
07:00+4ссв39700 0.0 1026276
10:00+9св67490 0.0 1026975
13:00+12св57415 0.0 10261473
16:00+12св67385 0.0 10251779
19:00+10св510505 0.0 1026398
22:00+6св813539 0.0 1028651